[[{"header":{"parameterUnit":"m.s-1","parameterCategory":1,"la1":30.2991,"la2":30.254,"lo1":-89.0895,"lo2":-89.0444,"dy":0.0017,"dx":0.0017,"nx":28,"ny":28,"refTime":"2024-03-09T09:00:00:Z","depth":0,"parameterNumber":2,"parameterNumberName":"U-component_of_WINDS"},"data":[0,0,0,0,0,0,0,0,0,0,0,0,0,0,0,0,0,0,0,0,0,0,0,0,0,0,0,0,0,0,0,0,0,0,0,0,0,0,0,0,0,0,0,0,0,0,0,0,0,0,0,0,0,0,0,0,0,0,2.3238,2.324,0,2.3361,2.3363,2.3364,2.3361,2.3359,2.3357,2.3356,2.3486,2.3491,2.3496,0,0,0,0,0,0,0,0,0,0,0,0,0,2.3005,2.3009,2.3238,2.324,2.3241,2.3361,2.3363,2.3364,2.3361,2.3359,2.3357,2.3355,2.3484,2.349,2.3496,0,0,0,0,0,0,0,0,0,0,0,0,0,2.3115,2.301,2.3238,2.3254,2.3257,2.3361,2.3363,2.3365,2.3362,2.3359,2.3356,2.3354,2.3482,2.349,2.3497,2.3595,0,0,2.352,2.3524,0,0,0,0,0,0,0,0,2.3108,2.3123,2.325,2.3253,2.3256,2.3343,2.3328,2.3442,2.3362,2.3322,2.3356,2.3353,2.3441,2.3452,2.348,2.3601,2.3606,2.3521,2.3526,2.3529,2.3531,0,0,0,0,0,0,0,2.3101,2.3118,2.3287,2.3252,2.3256,2.3256,2.3269,2.335,2.3394,2.3325,2.3325,2.334,2.3442,2.3473,2.3483,2.3608,2.3521,2.3527,2.3532,2.3535,2.3816,2.3819,0,0,0,0,0,0,2.3089,2.3112,2.3283,2.3291,2.3174,2.3263,2.3277,2.3318,2.3393,2.3402,2.3342,2.3339,2.3461,2.3475,2.3488,2.3608,2.3529,2.3536,2.354,2.3813,2.3817,2.382,0,0,0,0,0,0,2.3084,2.3105,2.3278,2.3201,2.3223,2.3269,2.3315,2.3322,2.3353,2.3406,2.3414,2.3365,2.346,2.3477,2.3568,2.3612,2.3539,2.3546,2.381,2.3814,2.3818,2.3847,0,0,0,0,0,0,2.3078,2.3103,2.3139,2.3202,2.3227,2.3355,2.3318,2.3326,2.3365,2.3363,2.343,2.3438,2.3459,2.3557,2.3576,2.3621,2.3552,2.3806,2.3812,2.3817,2.3843,2.3852,2.386,0,0,0,0,0,2.3069,2.3143,2.3141,2.3162,2.3274,2.3357,2.3372,2.3393,2.3369,2.3406,2.3441,2.3436,2.3604,2.3566,2.3587,2.3636,2.3803,2.381,2.3817,2.3839,2.385,2.386,0,0,0,0,0,0,2.3085,2.3152,2.315,2.3246,2.3296,2.3357,2.3405,2.3405,2.3464,2.3459,2.3485,2.35,2.3591,2.3623,2.3579,2.3735,2.3701,2.3712,2.371,2.3722,2.3731,2.3721,2.3558,0,0,0,0,0,2.31,2.3161,2.3216,2.3296,2.3321,2.3359,2.3396,2.3408,2.3461,2.3483,2.3523,2.3576,2.3641,2.3683,2.3746,2.3847,2.3863,2.3891,2.39,2.3907,2.3916,2.3973,2.3987,2.3842,2.3842,2.3842,0,0,2.3131,2.3175,2.3212,2.33,2.334,2.3404,2.3376,2.3445,2.3493,2.3493,2.3581,2.3613,2.3674,2.3771,2.3816,2.38,2.396,2.3915,2.3921,2.3926,2.3982,2.3995,2.4007,2.3846,2.3845,2.3845,0,0,2.322,2.3259,2.333,2.337,2.3431,2.3456,2.3473,2.3534,2.3555,2.3643,2.3645,2.3703,2.3814,2.3858,2.3894,2.4001,2.4,2.4021,2.4067,2.4122,2.4134,2.4144,2.4182,2.4196,2.403,2.403,2.403,0,2.3251,2.3346,2.3366,2.3436,2.3475,2.3477,2.355,2.3589,2.3667,2.3695,2.3676,2.3816,2.3857,2.3964,2.399,2.402,2.4041,2.4013,2.413,2.4141,2.415,2.4188,2.4202,2.4032,2.4032,2.4032,2.4032,0,2.3382,2.3448,2.3498,2.3573,2.3618,2.3688,2.3721,2.3764,2.3773,2.38,2.3891,2.394,2.4013,2.404,2.4049,2.4149,2.4137,2.4124,2.4091,2.4166,2.4201,2.4216,2.4035,2.4035,2.4034,2.4033,0,0,2.3484,2.3569,2.3587,2.3621,2.3689,2.3741,2.3813,2.3883,2.392,2.3974,2.4036,2.413,2.4118,2.416,2.4174,2.4223,2.4305,2.4204,2.4206,2.4221,2.4419,2.4428,2.4444,2.4304,2.4307,2.4309,2.4414,0,2.358,2.3705,2.3726,2.3836,2.3898,2.3902,2.3964,2.4013,2.4041,2.4099,2.413,2.4196,2.4176,2.4201,2.4249,2.4284,2.4345,2.4277,2.4363,2.4366,2.4347,2.4463,2.4473,2.4569,2.4428,2.443,2.4432,0,2.3709,2.3766,2.3882,2.3941,2.3968,2.4024,2.409,2.4145,2.4201,2.4218,2.4265,2.4274,2.435,2.4313,2.4419,2.4373,2.4409,2.4432,2.4437,2.4445,2.4403,2.4475,2.46,2.4614,2.4454,2.4452,2.445,0,2.3772,2.3878,2.3961,2.399,2.4062,2.4101,2.4133,2.4187,2.4228,2.4286,2.4314,2.4381,2.4418,2.447,2.4498,2.4469,2.4602,2.4568,2.462,2.4619,2.4647,2.4645,2.478,2.4671,2.4671,2.467,2.467,0,2.3877,2.3948,2.399,2.4041,2.4122,2.4146,2.4225,2.4256,2.4304,2.4363,2.4371,2.4426,2.4459,2.4519,2.4542,2.4626,2.4643,2.466,2.4665,2.4659,2.4657,2.4683,2.4678,2.4674,2.4673,2.4673,2.4672,0,2.3961,2.3992,2.4083,2.4143,2.416,2.4217,2.4269,2.432,2.4347,2.4422,2.4441,2.4485,2.4556,2.4589,2.4678,2.4693,2.479,2.479,2.477,2.4772,2.4822,2.4817,2.4979,2.5002,2.4877,2.4878,2.4879,0,2.4026,2.4081,2.4147,2.4186,2.4218,2.4282,2.4323,2.435,2.4393,2.4462,2.4505,2.4576,2.4635,2.475,2.4791,2.4859,2.4862,2.4914,2.4872,2.4865,2.4863,2.4859,2.4866,2.4921,2.4922,2.4923,2.4924,0,2.4138,2.4151,2.421,2.4275,2.4324,2.4377,2.4429,2.4461,2.4496,2.4545,2.4617,2.4663,2.4753,2.4825,2.4896,2.4931,2.4934,2.4937,2.4953,2.4947,2.4934,2.4942,2.4791,2.4933,2.4932,2.4932,2.4931,2.4931,2.4215,2.4264,2.4318,2.4384,2.4425,2.4474,2.4525,2.4558,2.4619,2.4694,2.4706,2.4784,2.4841,2.4936,2.4974,2.5036,2.5024,2.5047,2.5053,2.5058,2.5061,2.4924,2.5049,2.5049,2.5049,2.5049,2.5049,0,2.4328,2.4363,2.4423,2.4495,2.4547,2.4544,2.4602,2.4646,2.4714,2.4766,2.4823,2.4908,2.4977,2.5024,2.5095,2.5136,2.514,2.5154,2.5151,2.516,2.5067,2.5047,2.515,2.515,2.515,2.515,2.515,2.515,2.4392,2.4475,2.4494,2.4598,2.4634,2.4709,2.4742,2.4787,2.4829,2.4922,2.4979,2.5009,2.5059,2.5134,2.5198,2.5211,2.5237,2.5252,2.5263,2.5176,2.5166,2.5156,2.5136,2.5257,2.5257,2.5351,2.5351,2.5352]},{"header":{"parameterUnit":"m.s-1","parameterCategory":1,"la1":30.2991,"la2":30.254,"lo1":-89.0895,"lo2":-89.0444,"dy":0.0017,"dx":0.0017,"nx":28,"ny":28,"refTime":"2024-03-09T09:00:00:Z","depth":0,"parameterNumber":3,"parameterNumberName":"V-component_of_WINDS"},"data":[0,0,0,0,0,0,0,0,0,0,0,0,0,0,0,0,0,0,0,0,0,0,0,0,0,0,0,0,0,0,0,0,0,0,0,0,0,0,0,0,0,0,0,0,0,0,0,0,0,0,0,0,0,0,0,0,0,0,1.2301,1.2303,0,1.252,1.2523,1.2525,1.259,1.2589,1.2588,1.2587,1.2814,1.2821,1.2828,0,0,0,0,0,0,0,0,0,0,0,0,0,1.194,1.1946,1.23,1.2303,1.2306,1.252,1.2523,1.2526,1.259,1.2589,1.2587,1.2586,1.2812,1.282,1.2828,0,0,0,0,0,0,0,0,0,0,0,0,0,1.2121,1.1948,1.23,1.2364,1.2372,1.2519,1.2523,1.2527,1.259,1.2589,1.2587,1.2585,1.2809,1.2819,1.283,1.293,0,0,1.2862,1.2867,0,0,0,0,0,0,0,0,1.2111,1.2135,1.2352,1.236,1.2369,1.2526,1.2479,1.2662,1.2591,1.2507,1.2587,1.2585,1.272,1.2737,1.2783,1.2941,1.2951,1.2863,1.287,1.2874,1.2877,0,0,0,0,0,0,0,1.2098,1.2126,1.2387,1.2355,1.2365,1.2382,1.2406,1.2514,1.2621,1.2515,1.252,1.2545,1.2724,1.2772,1.2788,1.2954,1.2863,1.2872,1.2879,1.2883,1.3208,1.321,0,0,0,0,0,0,1.2075,1.2115,1.238,1.2394,1.2233,1.239,1.2417,1.2477,1.262,1.264,1.2546,1.2547,1.2755,1.2776,1.2797,1.2926,1.2874,1.2884,1.289,1.3206,1.3209,1.3211,0,0,0,0,0,0,1.2067,1.2098,1.2372,1.2256,1.2292,1.2398,1.2465,1.2482,1.2531,1.2643,1.2663,1.2575,1.2754,1.2782,1.2897,1.2934,1.2889,1.2899,1.3203,1.3207,1.321,1.3183,0,0,0,0,0,0,1.2056,1.2094,1.2133,1.2256,1.2298,1.2467,1.2468,1.2488,1.2549,1.2552,1.2676,1.2695,1.2755,1.2881,1.2907,1.2948,1.2907,1.32,1.3205,1.3209,1.3181,1.3185,1.3188,0,0,0,0,0,1.2043,1.2117,1.2134,1.2166,1.2348,1.2469,1.2493,1.256,1.2551,1.2592,1.2664,1.2691,1.2925,1.2892,1.2923,1.2967,1.3198,1.3204,1.3208,1.3179,1.3184,1.3188,0,0,0,0,0,0,1.1995,1.2134,1.2155,1.2271,1.2358,1.248,1.2533,1.2562,1.2654,1.2653,1.2733,1.276,1.287,1.293,1.289,1.3073,1.3063,1.3074,1.303,1.3036,1.3039,1.3023,1.2916,0,0,0,0,0,1.1998,1.2084,1.2201,1.2292,1.2334,1.2425,1.2481,1.2524,1.2618,1.2655,1.2736,1.2826,1.2921,1.2981,1.3074,1.3189,1.3219,1.3235,1.3239,1.3241,1.3251,1.3318,1.3328,1.3227,1.3227,1.3227,0,0,1.2005,1.2092,1.2141,1.2284,1.2357,1.2445,1.2456,1.2549,1.2615,1.267,1.2784,1.2846,1.2952,1.3068,1.3124,1.3122,1.3285,1.3248,1.3249,1.3257,1.3324,1.3334,1.3342,1.3231,1.323,1.323,0,0,1.2064,1.2137,1.2222,1.2294,1.2403,1.2464,1.2484,1.2602,1.2646,1.2761,1.2804,1.2885,1.3045,1.312,1.3178,1.3266,1.3295,1.3294,1.3313,1.3378,1.3386,1.3394,1.3427,1.3438,1.3302,1.3302,1.3302,0,1.2059,1.2193,1.2261,1.2352,1.2415,1.2467,1.2555,1.2622,1.2756,1.2798,1.2794,1.2997,1.3072,1.3207,1.3228,1.3274,1.3301,1.3281,1.3379,1.3388,1.3396,1.3428,1.344,1.3302,1.3302,1.3302,1.3302,0,1.2183,1.2275,1.2331,1.2459,1.2527,1.2616,1.2699,1.276,1.2798,1.2859,1.2977,1.3069,1.3182,1.3217,1.3255,1.3359,1.3354,1.3363,1.3355,1.3403,1.3435,1.3448,1.3301,1.3301,1.3301,1.3301,0,0,1.2218,1.2383,1.2403,1.2462,1.2587,1.266,1.2752,1.2862,1.2914,1.3005,1.3085,1.3219,1.3229,1.3296,1.3342,1.3399,1.3465,1.3402,1.3406,1.3412,1.3587,1.3581,1.3594,1.3484,1.3487,1.3489,1.3579,0,1.2294,1.2459,1.2524,1.2658,1.2746,1.2797,1.2877,1.2963,1.3023,1.3106,1.3173,1.3268,1.3272,1.3313,1.3371,1.3444,1.3501,1.3438,1.3561,1.3565,1.3535,1.3611,1.3604,1.3685,1.3592,1.3594,1.3596,0,1.2405,1.2496,1.264,1.2755,1.2794,1.2865,1.2972,1.3051,1.315,1.3189,1.3264,1.3308,1.3407,1.3391,1.353,1.3486,1.354,1.3583,1.3588,1.3604,1.3584,1.363,1.3712,1.3725,1.3616,1.3614,1.3613,0,1.2418,1.2578,1.2685,1.2734,1.2871,1.292,1.2979,1.3076,1.3139,1.3232,1.3274,1.3378,1.3436,1.3516,1.3587,1.3568,1.372,1.3709,1.3758,1.3756,1.3789,1.3786,1.3882,1.382,1.382,1.3819,1.3819,0,1.2497,1.2584,1.2693,1.2759,1.2858,1.2931,1.3027,1.309,1.3177,1.3257,1.3307,1.3381,1.347,1.3556,1.3612,1.372,1.3745,1.3781,1.3796,1.3778,1.3774,1.3816,1.3813,1.3823,1.3822,1.3821,1.3821,0,1.253,1.2606,1.2727,1.2847,1.2879,1.2947,1.305,1.3117,1.3178,1.328,1.3308,1.3405,1.351,1.3588,1.3723,1.3761,1.3877,1.389,1.3843,1.3851,1.3895,1.3891,1.4024,1.4046,1.3966,1.3966,1.3967,0,1.2576,1.2644,1.2771,1.2828,1.2887,1.2978,1.3043,1.3118,1.3183,1.3301,1.3354,1.3462,1.3552,1.3716,1.38,1.3905,1.3923,1.3962,1.3939,1.392,1.3926,1.3922,1.393,1.3966,1.3966,1.3967,1.3967,0,1.2651,1.2686,1.2776,1.288,1.2955,1.3041,1.3128,1.3172,1.3263,1.3334,1.3441,1.351,1.3649,1.3756,1.3868,1.3931,1.3965,1.3973,1.3991,1.3974,1.3945,1.3964,1.3854,1.397,1.397,1.397,1.397,1.397,1.2694,1.2757,1.2857,1.2956,1.3029,1.3109,1.3178,1.3249,1.3339,1.3458,1.3497,1.3608,1.3707,1.3861,1.3925,1.4014,1.4015,1.4039,1.4045,1.4051,1.405,1.3929,1.4035,1.4035,1.4035,1.4035,1.4035,0,1.2773,1.2839,1.293,1.305,1.3129,1.3152,1.325,1.3315,1.3412,1.3501,1.3588,1.3712,1.3817,1.3909,1.4018,1.4071,1.409,1.4098,1.4096,1.411,1.4043,1.4018,1.4081,1.4081,1.4081,1.4081,1.4081,1.4081,1.2823,1.2932,1.2979,1.3125,1.3192,1.3301,1.3355,1.343,1.3501,1.3637,1.3724,1.3783,1.3874,1.399,1.4088,1.4112,1.4151,1.4155,1.4184,1.412,1.4114,1.4109,1.4086,1.4162,1.4162,1.4244,1.4245,1.4245]}]]